,,Stat5,,Stat1,,Stat2,,Stat3,,Stat4,,Wind1,,Wind1,
time,status,PA1M_AVG,status,PR1M_SUM,status,RH1M_AVG,status,SR1M_AVG,status,TA1M_AVG,status,W1dAve1m,status,W1sAve1m,
2001-07-05, 00:00:01,VALID,917.54,VALID,0,VALID,97.279,VALID,-0.0679233,VALID,19.405,VALID,20,VALID,0.686198,
2001-07-05, 00:01:00,VALID,917.54,VALID,0,VALID,97.2574,VALID,-0.0509425,VALID,19.415,VALID,16,VALID,0.528795,
2001-07-05, 00:02:00,VALID,917.511,VALID,0,VALID,97.2294,VALID,-0.0169808,VALID,19.4242,VALID,13,VALID,0.707465,
2001-07-05, 00:03:00,VALID,917.478,VALID,0,VALID,97.1849,VALID,-0.0509425,VALID,19.447,VALID,17,VALID,0.821957,
2001-07-05, 00:04:00,VALID,917.454,VALID,0,VALID,97.0527,VALID,-0.0339617,VALID,19.45,VALID,20,VALID,0.743304,
2001-07-05, 00:05:00,VALID,917.435,VALID,0,VALID,96.9738,VALID,-0.0169808,VALID,19.4664,VALID,26,VALID,0.567508,
2001-07-05, 00:06:00,VALID,917.413,VALID,0,VALID,96.9166,VALID,-0.0509425,VALID,19.4798,VALID,23,VALID,0.403952,
2001-07-05, 00:07:00,VALID,917.388,VALID,0,VALID,96.853,VALID,-0.0509425,VALID,19.4761,VALID,16,VALID,0.551604,
2001-07-05, 00:08:00,VALID,917.36,VALID,0,VALID,96.7666,VALID,-0.0849042,VALID,19.4955,VALID,12,VALID,0.558475,
2001-07-05, 00:09:01,VALID,917.353,VALID,0,VALID,96.6063,VALID,-0.0849042,VALID,19.5057,VALID,358,VALID,0.844595,
2001-07-05, 00:10:00,VALID,917.353,VALID,0,VALID,96.5453,VALID,-0.0679233,VALID,19.4987,VALID,357,VALID,0.699424,
2001-07-05, 00:11:00,VALID,917.339,VALID,0,VALID,96.497,VALID,-0.0339617,VALID,19.5019,VALID,350,VALID,0.671094,
2001-07-05, 00:12:00,VALID,917.327,VALID,0,VALID,96.5479,VALID,0,VALID,19.4985,VALID,339,VALID,0.551809,
2001-07-05, 00:13:00,VALID,917.31,VALID,0,VALID,96.6076,VALID,-0.0509425,VALID,19.4982,VALID,5,VALID,0.644141,
2001-07-05, 00:14:00,VALID,917.306,VALID,0,VALID,96.6,VALID,0,VALID,19.5116,VALID,13,VALID,0.727564,
2001-07-05, 00:15:00,VALID,917.304,VALID,0,VALID,96.5669,VALID,-0.0169808,VALID,19.5111,VALID,11,VALID,0.609375,
2001-07-05, 00:16:00,VALID,917.31,VALID,0,VALID,96.5339,VALID,-0.0339617,VALID,19.5144,VALID,16,VALID,0.657689,
2001-07-05, 00:17:00,VALID,917.315,VALID,0,VALID,96.4957,VALID,-0.0339617,VALID,19.5208,VALID,15,VALID,0.322656,
2001-07-05, 00:18:00,VALID,917.323,VALID,0,VALID,96.4639,VALID,-0.0169808,VALID,19.5308,VALID,18,VALID,0.458333,
2001-07-05, 00:19:00,VALID,917.328,VALID,0,VALID,96.4385,VALID,-0.0339617,VALID,19.5402,VALID,26,VALID,0.425586,
2001-07-05, 00:20:00,VALID,917.338,VALID,0,VALID,96.4003,VALID,-0.0169808,VALID,19.537,VALID,21,VALID,0.0590049,
2001-07-05, 00:21:00,VALID,917.342,VALID,0,VALID,96.4321,VALID,-0.0169808,VALID,19.5372,VALID,21,VALID,0.130664,
2001-07-05, 00:22:00,VALID,917.345,VALID,0,VALID,96.4207,VALID,0,VALID,19.5601,VALID,21,VALID,0.357171,
2001-07-05, 00:23:00,VALID,917.34,VALID,0,VALID,96.3686,VALID,0,VALID,19.5365,VALID,21,VALID,0.397852,
2001-07-05, 00:24:00,VALID,917.354,VALID,0,VALID,96.3507,VALID,-0.0169808,VALID,19.5432,VALID,19,VALID,0.391036,
2001-07-05, 00:25:01,VALID,917.385,VALID,0,VALID,96.3889,VALID,0,VALID,19.5405,VALID,11,VALID,0.585352,
2001-07-05, 00:26:00,VALID,917.401,VALID,0,VALID,96.4054,VALID,0,VALID,19.5266,VALID,354,VALID,0.234575,
2001-07-05, 00:27:01,VALID,917.435,VALID,0,VALID,96.4283,VALID,0.0169808,VALID,19.5268,VALID,354,VALID,0.169336,
2001-07-05, 00:28:00,VALID,917.433,VALID,0,VALID,96.4919,VALID,-0.0169808,VALID,19.53,VALID,15,VALID,0.672492,
2001-07-05, 00:29:01,VALID,917.419,VALID,0,VALID,96.5059,VALID,0.0169808,VALID,19.5464,VALID,21,VALID,1.05293,
2001-07-05, 00:30:00,VALID,917.398,VALID,0,VALID,96.5173,VALID,-0.0169808,VALID,19.5464,VALID,19,VALID,0.698317,
2001-07-05, 00:31:01,VALID,917.379,VALID,0,VALID,96.4436,VALID,0,VALID,19.5531,VALID,14,VALID,0.693945,
2001-07-05, 00:32:01,VALID,917.367,VALID,0,VALID,96.4283,VALID,0,VALID,19.5335,VALID,22,VALID,0.792558,
2001-07-05, 00:33:01,VALID,917.367,VALID,0,VALID,96.5262,VALID,0,VALID,19.5432,VALID,29,VALID,0.836133,
2001-07-05, 00:34:01,VALID,917.37,VALID,0,VALID,96.5351,VALID,0,VALID,19.5556,VALID,27,VALID,1.03405,
2001-07-05, 00:35:01,VALID,917.368,VALID,0,VALID,96.5173,VALID,0,VALID,19.5723,VALID,15,VALID,0.832812,
2001-07-05, 00:36:01,VALID,917.369,VALID,0,VALID,96.3825,VALID,-0.0339617,VALID,19.5725,VALID,21,VALID,0.641653,
2001-07-05, 00:37:01,VALID,917.381,VALID,0,VALID,96.3635,VALID,0,VALID,19.5685,VALID,19,VALID,0.388867,
2001-07-05, 00:38:01,VALID,917.381,VALID,0,VALID,96.3775,VALID,0.0169808,VALID,19.572,VALID,19,VALID,0.199119,
2001-07-05, 00:39:01,VALID,917.387,VALID,0,VALID,96.4003,VALID,0,VALID,19.5889,VALID,19,VALID,0.0214844,
2001-07-05, 00:40:01,VALID,917.391,VALID,0,VALID,96.4054,VALID,0,VALID,19.5887,VALID,19,VALID,0.225329,
2001-07-05, 00:41:01,VALID,917.375,VALID,0,VALID,96.422,VALID,0,VALID,19.5981,VALID,19,VALID,0.176563,
2001-07-05, 00:42:01,VALID,917.373,VALID,0,VALID,96.4487,VALID,-0.0339617,VALID,19.5882,VALID,14,VALID,0.478766,
2001-07-05, 00:43:01,VALID,917.365,VALID,0,VALID,96.3635,VALID,-0.0169808,VALID,19.6013,VALID,351,VALID,0.56543,
2001-07-05, 00:44:01,VALID,917.361,VALID,0,VALID,96.3469,VALID,0,VALID,19.5745,VALID,355,VALID,0.242804,
2001-07-05, 00:45:01,VALID,917.362,VALID,0,VALID,96.4334,VALID,0,VALID,19.5951,VALID,355,VALID,0.0199219,
2001-07-05, 00:46:01,VALID,917.363,VALID,0,VALID,96.4906,VALID,0,VALID,19.5981,VALID,355,VALID,0.0314503,
2001-07-05, 00:47:01,VALID,917.374,VALID,0,VALID,96.5033,VALID,0,VALID,19.5979,VALID,357,VALID,0.305273,
2001-07-05, 00:48:01,VALID,917.357,VALID,0,VALID,96.5135,VALID,-0.0339617,VALID,19.5976,VALID,15,VALID,0.624178,
2001-07-05, 00:49:01,VALID,917.348,VALID,0,VALID,96.5746,VALID,0,VALID,19.6078,VALID,18,VALID,0.701953,
2001-07-05, 00:50:01,VALID,917.341,VALID,0,VALID,96.6394,VALID,0,VALID,19.6043,VALID,14,VALID,0.574519,
2001-07-05, 00:51:01,VALID,917.329,VALID,0,VALID,96.6966,VALID,-0.0169808,VALID,19.6073,VALID,22,VALID,0.733594,
2001-07-05, 00:52:01,VALID,917.313,VALID,0,VALID,96.736,VALID,0,VALID,19.614,VALID,22,VALID,0.54523,
2001-07-05, 00:53:01,VALID,917.301,VALID,0,VALID,96.731,VALID,0,VALID,19.6172,VALID,22,VALID,0.0375,
2001-07-05, 00:54:01,VALID,917.302,VALID,0,VALID,96.7284,VALID,-0.0169808,VALID,19.6267,VALID,22,VALID,0,
2001-07-05, 00:55:01,VALID,917.308,VALID,0,VALID,96.6814,VALID,0,VALID,19.6272,VALID,13,VALID,0,
2001-07-05, 00:56:01,VALID,917.29,VALID,0,VALID,96.6241,VALID,-0.0169808,VALID,19.6207,VALID,26,VALID,0.433799,
2001-07-05, 00:57:01,VALID,917.278,VALID,0,VALID,96.633,VALID,-0.0169808,VALID,19.6075,VALID,16,VALID,0.799219,
2001-07-05, 00:58:01,VALID,917.29,VALID,0,VALID,96.5479,VALID,-0.0679233,VALID,19.5854,VALID,17,VALID,1.04427,
2001-07-05, 00:59:01,VALID,917.298,VALID,0,VALID,96.628,VALID,-0.0339617,VALID,19.5656,VALID,7,VALID,0.604297,
2001-07-05, 01:00:01,VALID,917.3,VALID,0,VALID,96.6966,VALID,-0.0339617,VALID,19.5658,VALID,342,VALID,0.17722,
2001-07-05, 01:01:01,VALID,917.29,VALID,0,VALID,96.7742,VALID,-0.0509425,VALID,19.5792,VALID,101,VALID,0.459766,
2001-07-05, 01:02:01,VALID,917.277,VALID,0,VALID,96.8479,VALID,-0.0509425,VALID,19.5792,VALID,34,VALID,0.59976,
2001-07-05, 01:03:01,VALID,917.266,VALID,0,VALID,96.9281,VALID,-0.0169808,VALID,19.5919,VALID,14,VALID,0.748633,
2001-07-05, 01:04:00,VALID,917.264,VALID,0,VALID,96.9255,VALID,-0.0169808,VALID,19.5981,VALID,196,VALID,0.238898,
2001-07-05, 01:05:00,VALID,917.256,VALID,0,VALID,96.8797,VALID,-0.0679233,VALID,19.6013,VALID,2,VALID,0.632031,
2001-07-05, 01:06:00,VALID,917.249,VALID,0,VALID,96.8632,VALID,-0.0679233,VALID,19.6242,VALID,25,VALID,0.241987,
2001-07-05, 01:07:00,VALID,917.259,VALID,0,VALID,96.8225,VALID,0,VALID,19.6406,VALID,10,VALID,0.672656,
2001-07-05, 01:08:00,VALID,917.245,VALID,0,VALID,96.7589,VALID,-0.0509425,VALID,19.6369,VALID,50,VALID,0.294202,
2001-07-05, 01:09:00,VALID,917.245,VALID,0,VALID,96.7755,VALID,-0.0169808,VALID,19.6302,VALID,21,VALID,0.279883,
2001-07-05, 01:10:00,VALID,917.241,VALID,0,VALID,96.8352,VALID,-0.101885,VALID,19.6436,VALID,21,VALID,0.0478766,
2001-07-05, 01:11:00,VALID,917.236,VALID,0,VALID,96.8441,VALID,0,VALID,19.653,VALID,172,VALID,0.553711,
2001-07-05, 01:12:00,VALID,917.217,VALID,0,VALID,96.8327,VALID,0.0509425,VALID,19.6585,VALID,183,VALID,0.683799,
2001-07-05, 01:13:00,VALID,917.209,VALID,0,VALID,96.8454,VALID,0.0679233,VALID,19.6647,VALID,200,VALID,0.24082,
2001-07-05, 01:14:00,VALID,917.209,VALID,0,VALID,96.8734,VALID,0.0509425,VALID,19.6746,VALID,201,VALID,0.222756,
2001-07-05, 01:15:00,VALID,917.188,VALID,0,VALID,96.8543,VALID,0.0849042,VALID,19.6903,VALID,248,VALID,0.297656,
2001-07-05, 01:16:00,VALID,917.178,VALID,0,VALID,96.8022,VALID,0.0339617,VALID,19.6967,VALID,197,VALID,0.594161,
2001-07-05, 01:17:00,VALID,917.18,VALID,0,VALID,96.717,VALID,0.0509425,VALID,19.6873,VALID,168,VALID,0.743945,
2001-07-05, 01:18:00,VALID,917.182,VALID,0,VALID,96.7068,VALID,0.0679233,VALID,19.6943,VALID,166,VALID,0.403846,
2001-07-05, 01:19:00,VALID,917.173,VALID,0,VALID,96.7462,VALID,0.0679233,VALID,19.694,VALID,166,VALID,0.323633,
2001-07-05, 01:20:00,VALID,917.172,VALID,0,VALID,96.8047,VALID,0.0849042,VALID,19.6841,VALID,166,VALID,0.0390625,
2001-07-05, 01:21:00,VALID,917.152,VALID,0,VALID,96.8403,VALID,0.0509425,VALID,19.6836,VALID,166,VALID,0,
2001-07-05, 01:22:00,VALID,917.145,VALID,0,VALID,96.9039,VALID,0.0679233,VALID,19.69,VALID,166,VALID,0.0735176,
2001-07-05, 01:23:00,VALID,917.14,VALID,0,VALID,96.9675,VALID,0.0509425,VALID,19.7059,VALID,166,VALID,0,
2001-07-05, 01:24:00,VALID,917.138,VALID,0,VALID,96.8963,VALID,0.0679233,VALID,19.7261,VALID,166,VALID,0,
2001-07-05, 01:25:00,VALID,917.142,VALID,0,VALID,96.8505,VALID,0.0849042,VALID,19.7094,VALID,168,VALID,0,
2001-07-05, 01:26:00,VALID,917.154,VALID,0,VALID,96.8276,VALID,0.101885,VALID,19.7161,VALID,226,VALID,0.184095,
2001-07-05, 01:27:00,VALID,917.15,VALID,0,VALID,96.6686,VALID,0.0339617,VALID,19.7139,VALID,343,VALID,0.424805,
2001-07-05, 01:28:00,VALID,917.148,VALID,0,VALID,96.6241,VALID,0,VALID,19.7171,VALID,354,VALID,0.214433,
2001-07-05, 01:29:00,VALID,917.161,VALID,0,VALID,96.6038,VALID,0,VALID,19.7236,VALID,314,VALID,0.236523,
2001-07-05, 01:30:00,VALID,917.158,VALID,0,VALID,96.661,VALID,-0.0169808,VALID,19.7295,VALID,331,VALID,0.30028,
2001-07-05, 01:31:00,VALID,917.158,VALID,0,VALID,96.4855,VALID,0,VALID,19.733,VALID,267,VALID,0.774609,
2001-07-05, 01:32:00,VALID,917.157,VALID,0,VALID,96.0074,VALID,-0.0339617,VALID,19.7335,VALID,278,VALID,0.821752,
2001-07-05, 01:33:00,VALID,917.117,VALID,0,VALID,95.9362,VALID,-0.0679233,VALID,19.7405,VALID,327,VALID,0.140024,
2001-07-05, 01:34:00,VALID,917.09,VALID,0,VALID,95.9209,VALID,-0.0509425,VALID,19.74,VALID,327,VALID,0.0350561,
2001-07-05, 01:35:00,VALID,917.067,VALID,0,VALID,95.8612,VALID,-0.0339617,VALID,19.7467,VALID,286,VALID,0.327539,
2001-07-05, 01:36:00,VALID,917.048,VALID,0,VALID,95.9044,VALID,-0.0509425,VALID,19.7372,VALID,272,VALID,0.141447,
2001-07-05, 01:37:00,VALID,917.065,VALID,0,VALID,95.9705,VALID,-0.0509425,VALID,19.7666,VALID,340,VALID,0.316797,
2001-07-05, 01:38:00,VALID,917.074,VALID,0,VALID,96.015,VALID,-0.0169808,VALID,19.7497,VALID,352,VALID,0.0799279,
2001-07-05, 01:39:00,VALID,917.07,VALID,0,VALID,95.9871,VALID,-0.0849042,VALID,19.7601,VALID,352,VALID,0.0890625,
2001-07-05, 01:40:00,VALID,917.072,VALID,0,VALID,96.015,VALID,0,VALID,19.7432,VALID,9,VALID,0.498355,
2001-07-05, 01:41:00,VALID,917.039,VALID,0,VALID,96.0087,VALID,-0.0679233,VALID,19.7531,VALID,17,VALID,0.745508,
2001-07-05, 01:42:00,VALID,917.007,VALID,0,VALID,96.0379,VALID,-0.0679233,VALID,19.7469,VALID,22,VALID,0.320713,
2001-07-05, 01:43:00,VALID,916.985,VALID,0,VALID,96.0417,VALID,-0.0509425,VALID,19.7405,VALID,22,VALID,0.280859,
2001-07-05, 01:44:00,VALID,916.974,VALID,0,VALID,96.1066,VALID,-0.0169808,VALID,19.7305,VALID,22,VALID,0.453947,
2001-07-05, 01:45:00,VALID,916.963,VALID,0,VALID,96.0939,VALID,-0.0849042,VALID,19.7338,VALID,21,VALID,0.348633,
2001-07-05, 01:46:00,VALID,916.962,VALID,0,VALID,96.0901,VALID,-0.0679233,VALID,19.7077,VALID,15,VALID,0.580329,
2001-07-05, 01:47:00,VALID,916.952,VALID,0,VALID,96.1041,VALID,-0.0849042,VALID,19.6851,VALID,20,VALID,0.892383,
2001-07-05, 01:48:00,VALID,916.94,VALID,0,VALID,96.174,VALID,-0.0509425,VALID,19.6689,VALID,15,VALID,0.809005,
2001-07-05, 01:49:00,VALID,916.918,VALID,0,VALID,96.2172,VALID,-0.0509425,VALID,19.6659,VALID,13,VALID,0.745508,
2001-07-05, 01:50:00,VALID,916.925,VALID,0,VALID,96.1829,VALID,-0.0509425,VALID,19.6396,VALID,13,VALID,0.45012,
2001-07-05, 01:51:00,VALID,916.919,VALID,0,VALID,96.2452,VALID,-0.0509425,VALID,19.6267,VALID,13,VALID,0.417773,
2001-07-05, 01:52:00,VALID,916.914,VALID,0,VALID,96.3329,VALID,-0.0509425,VALID,19.6177,VALID,13,VALID,0.32278,
2001-07-05, 01:53:00,VALID,916.921,VALID,0,VALID,96.4296,VALID,-0.0679233,VALID,19.611,VALID,8,VALID,1.0166,
2001-07-05, 01:54:00,VALID,916.9,VALID,0,VALID,96.4588,VALID,-0.0679233,VALID,19.6177,VALID,13,VALID,1.06731,
2001-07-05, 01:55:00,VALID,916.882,VALID,0,VALID,96.5033,VALID,-0.0849042,VALID,19.6242,VALID,352,VALID,0.46543,
2001-07-05, 01:56:00,VALID,916.89,VALID,0,VALID,96.4639,VALID,-0.0679233,VALID,19.621,VALID,348,VALID,0.420641,
2001-07-05, 01:57:00,VALID,916.871,VALID,0,VALID,96.5377,VALID,0.0339617,VALID,19.6063,VALID,20,VALID,0.655664,
2001-07-05, 01:58:00,VALID,916.854,VALID,0,VALID,96.614,VALID,0.0849042,VALID,19.5991,VALID,21,VALID,0.734976,
2001-07-05, 01:59:00,VALID,916.846,VALID,0,VALID,96.6826,VALID,0.0679233,VALID,19.619,VALID,23,VALID,0.853516,
2001-07-05, 02:00:00,VALID,916.823,VALID,0,VALID,96.7538,VALID,0.0849042,VALID,19.6292,VALID,25,VALID,0.706209,
2001-07-05, 02:01:00,VALID,916.802,VALID,0,VALID,96.7971,VALID,0.0339617,VALID,19.6222,VALID,24,VALID,0.514844,
2001-07-05, 02:02:00,VALID,916.804,VALID,0,VALID,96.7831,VALID,0.0169808,VALID,19.6418,VALID,25,VALID,0.088141,
2001-07-05, 02:03:00,VALID,916.8,VALID,0,VALID,96.8225,VALID,0.0339617,VALID,19.6346,VALID,25,VALID,0.0369141,
2001-07-05, 02:04:00,VALID,916.776,VALID,0,VALID,96.8136,VALID,0.0339617,VALID,19.6518,VALID,25,VALID,0,
2001-07-05, 02:05:00,VALID,916.768,VALID,0,VALID,96.8289,VALID,0,VALID,19.6548,VALID,25,VALID,0.151953,
2001-07-05, 02:06:00,VALID,916.759,VALID,0,VALID,96.881,VALID,0.0339617,VALID,19.6741,VALID,25,VALID,0.167468,
2001-07-05, 02:07:00,VALID,916.76,VALID,0,VALID,96.6826,VALID,0.0339617,VALID,19.6744,VALID,25,VALID,0.345313,
2001-07-05, 02:08:00,VALID,916.734,VALID,0,VALID,96.6102,VALID,0.0679233,VALID,19.6448,VALID,25,VALID,0.131579,
2001-07-05, 02:09:00,VALID,916.707,VALID,0,VALID,96.5987,VALID,0.0509425,VALID,19.6418,VALID,25,VALID,0.115625,
2001-07-05, 02:10:00,VALID,916.701,VALID,0,VALID,96.5669,VALID,0.0679233,VALID,19.6257,VALID,24,VALID,0.457532,
2001-07-05, 02:11:00,VALID,916.7,VALID,0,VALID,96.5529,VALID,0.0509425,VALID,19.6061,VALID,20,VALID,0.486328,
2001-07-05, 02:12:00,VALID,916.669,VALID,0,VALID,96.5326,VALID,-0.0169808,VALID,19.6075,VALID,20,VALID,0.422697,
2001-07-05, 02:13:00,VALID,916.655,VALID,0,VALID,96.4906,VALID,-0.0509425,VALID,19.5618,VALID,18,VALID,0.488867,
2001-07-05, 02:14:00,VALID,916.659,VALID,0,VALID,96.5148,VALID,-0.0509425,VALID,19.5531,VALID,18,VALID,0.598558,
2001-07-05, 02:15:00,VALID,916.647,VALID,0,VALID,96.5326,VALID,-0.0849042,VALID,19.5171,VALID,20,VALID,0.495117,
2001-07-05, 02:16:00,VALID,916.649,VALID,0,VALID,96.5364,VALID,-0.0169808,VALID,19.4918,VALID,19,VALID,0.361842,
2001-07-05, 02:17:00,VALID,916.65,VALID,0,VALID,96.5148,VALID,-0.0509425,VALID,19.4659,VALID,19,VALID,0.496875,
2001-07-05, 02:18:00,VALID,916.645,VALID,0,VALID,96.5657,VALID,-0.0339617,VALID,19.4239,VALID,20,VALID,0.855769,
2001-07-05, 02:19:00,VALID,916.628,VALID,0,VALID,96.7755,VALID,-0.0509425,VALID,19.4041,VALID,24,VALID,0.824023,
2001-07-05, 02:20:00,VALID,916.624,VALID,0,VALID,96.8327,VALID,-0.0339617,VALID,19.3911,VALID,16,VALID,0.494038,
2001-07-05, 02:21:00,VALID,916.635,VALID,0,VALID,96.9726,VALID,-0.0509425,VALID,19.3819,VALID,8,VALID,0.108398,
2001-07-05, 02:22:00,VALID,916.619,VALID,0,VALID,97.0527,VALID,-0.0339617,VALID,19.3723,VALID,8,VALID,0.00120192,
2001-07-05, 02:23:00,VALID,916.599,VALID,0,VALID,97.19,VALID,-0.0339617,VALID,19.3787,VALID,17,VALID,0.0837891,
2001-07-05, 02:24:00,VALID,916.59,VALID,0,VALID,97.3248,VALID,-0.0509425,VALID,19.3812,VALID,193,VALID,0.492804,
2001-07-05, 02:25:00,VALID,916.567,VALID,0,VALID,97.4291,VALID,-0.0169808,VALID,19.3745,VALID,184,VALID,0.0453125,
2001-07-05, 02:26:00,VALID,916.545,VALID,0,VALID,97.5143,VALID,-0.0169808,VALID,19.3849,VALID,105,VALID,0.000801282,
2001-07-05, 02:27:00,VALID,916.534,VALID,0,VALID,97.4965,VALID,0,VALID,19.3748,VALID,17,VALID,0,
2001-07-05, 02:28:00,VALID,916.535,VALID,0,VALID,97.4316,VALID,0,VALID,19.3524,VALID,17,VALID,0,
2001-07-05, 02:29:00,VALID,916.528,VALID,0,VALID,97.4265,VALID,-0.0509425,VALID,19.3462,VALID,17,VALID,0,
2001-07-05, 02:30:00,VALID,916.539,VALID,0,VALID,97.4456,VALID,-0.0679233,VALID,19.3236,VALID,17,VALID,0,
2001-07-05, 02:31:00,VALID,916.521,VALID,0,VALID,97.4253,VALID,-0.0169808,VALID,19.3144,VALID,17,VALID,0,
2001-07-05, 02:32:00,VALID,916.526,VALID,0,VALID,97.4494,VALID,-0.0339617,VALID,19.2883,VALID,17,VALID,0,
2001-07-05, 02:33:00,VALID,916.519,VALID,0,VALID,97.368,VALID,-0.0679233,VALID,19.2657,VALID,17,VALID,0,
2001-07-05, 02:34:00,VALID,916.507,VALID,0,VALID,97.2956,VALID,0,VALID,19.2297,VALID,17,VALID,0,
2001-07-05, 02:35:00,VALID,916.502,VALID,0,VALID,97.2803,VALID,-0.0679233,VALID,19.211,VALID,17,VALID,0,
2001-07-05, 02:36:00,VALID,916.487,VALID,0,VALID,97.2867,VALID,-0.101885,VALID,19.1819,VALID,17,VALID,0,
2001-07-05, 02:37:00,VALID,916.479,VALID,0,VALID,97.2523,VALID,-0.0679233,VALID,19.1559,VALID,17,VALID,0,
2001-07-05, 02:38:00,VALID,916.488,VALID,0,VALID,97.176,VALID,-0.0679233,VALID,19.1174,VALID,17,VALID,0,
2001-07-05, 02:39:00,VALID,916.456,VALID,0,VALID,97.2256,VALID,-0.0509425,VALID,19.0952,VALID,17,VALID,0,
2001-07-05, 02:40:00,VALID,916.435,VALID,0,VALID,97.4494,VALID,-0.101885,VALID,19.0816,VALID,17,VALID,0,
2001-07-05, 02:41:00,VALID,916.428,VALID,0,VALID,97.4927,VALID,-0.0849042,VALID,19.0786,VALID,17,VALID,0,
2001-07-05, 02:42:00,VALID,916.43,VALID,0,VALID,97.5244,VALID,-0.0339617,VALID,19.0465,VALID,13,VALID,0,
2001-07-05, 02:43:00,VALID,916.448,VALID,0,VALID,97.6796,VALID,-0.0509425,VALID,19.0433,VALID,11,VALID,0,
2001-07-05, 02:44:00,VALID,916.436,VALID,0,VALID,97.7635,VALID,-0.0849042,VALID,19.0436,VALID,11,VALID,0,
2001-07-05, 02:45:00,VALID,916.454,VALID,0,VALID,97.7966,VALID,-0.0339617,VALID,19.0302,VALID,11,VALID,0,
2001-07-05, 02:46:00,VALID,916.423,VALID,0,VALID,97.7953,VALID,-0.0169808,VALID,19.0237,VALID,11,VALID,0,
2001-07-05, 02:47:00,VALID,916.414,VALID,0,VALID,97.7889,VALID,-0.0339617,VALID,19.0108,VALID,11,VALID,0,
2001-07-05, 02:48:00,VALID,916.411,VALID,0,VALID,97.7559,VALID,-0.0509425,VALID,18.9849,VALID,20,VALID,0,
2001-07-05, 02:49:00,VALID,916.401,VALID,0,VALID,97.7165,VALID,-0.0679233,VALID,18.9753,VALID,25,VALID,0,
2001-07-05, 02:50:00,VALID,916.39,VALID,0,VALID,97.5677,VALID,-0.0339617,VALID,18.94,VALID,25,VALID,0,
2001-07-05, 02:51:00,VALID,916.377,VALID,0,VALID,97.4596,VALID,-0.0679233,VALID,18.9114,VALID,25,VALID,0,
2001-07-05, 02:52:00,VALID,916.366,VALID,0,VALID,97.3579,VALID,-0.0679233,VALID,18.862,VALID,25,VALID,0,
2001-07-05, 02:53:00,VALID,916.366,VALID,0,VALID,97.424,VALID,-0.0679233,VALID,18.8461,VALID,25,VALID,0,
2001-07-05, 02:54:00,VALID,916.36,VALID,0,VALID,97.5944,VALID,-0.0849042,VALID,18.8629,VALID,25,VALID,0,
2001-07-05, 02:55:00,VALID,916.353,VALID,0,VALID,97.7126,VALID,-0.0679233,VALID,18.8696,VALID,26,VALID,0,
2001-07-05, 02:56:00,VALID,916.333,VALID,0,VALID,97.8309,VALID,-0.0849042,VALID,18.8657,VALID,26,VALID,0,
2001-07-05, 02:57:00,VALID,916.325,VALID,0,VALID,97.9263,VALID,-0.0509425,VALID,18.8756,VALID,26,VALID,0,
2001-07-05, 02:58:00,VALID,916.312,VALID,0,VALID,97.972,VALID,-0.0509425,VALID,18.8719,VALID,26,VALID,0,
2001-07-05, 02:59:00,VALID,916.295,VALID,0,VALID,98.0026,VALID,-0.0169808,VALID,18.8719,VALID,26,VALID,0,
2001-07-05, 03:00:00,VALID,916.277,VALID,0,VALID,98.0674,VALID,-0.0169808,VALID,18.8788,VALID,26,VALID,0,
2001-07-05, 03:01:00,VALID,916.228,VALID,0,VALID,98.1463,VALID,0,VALID,18.8749,VALID,26,VALID,0,
2001-07-05, 03:02:00,VALID,916.201,VALID,0,VALID,98.206,VALID,-0.0509425,VALID,18.8814,VALID,26,VALID,0,
2001-07-05, 03:03:00,VALID,916.178,VALID,0,VALID,98.2989,VALID,0,VALID,18.9107,VALID,26,VALID,0,
2001-07-05, 03:04:00,VALID,916.162,VALID,0,VALID,98.1844,VALID,-0.0169808,VALID,18.9074,VALID,26,VALID,0,
2001-07-05, 03:05:00,VALID,916.115,VALID,0,VALID,97.6872,VALID,-0.0169808,VALID,18.8076,VALID,21,VALID,0,
2001-07-05, 03:06:00,VALID,916.119,VALID,0,VALID,97.3604,VALID,-0.0509425,VALID,18.6911,VALID,5,VALID,0,
2001-07-05, 03:07:00,VALID,916.099,VALID,0,VALID,97.2841,VALID,0,VALID,18.6233,VALID,14,VALID,0.0619141,
2001-07-05, 03:08:00,VALID,916.085,VALID,0,VALID,97.7063,VALID,-0.0169808,VALID,18.6267,VALID,17,VALID,1.0257,
2001-07-05, 03:09:00,VALID,916.072,VALID,0,VALID,97.9161,VALID,-0.0509425,VALID,18.6459,VALID,275,VALID,0.588867,
2001-07-05, 03:10:00,VALID,916.069,VALID,0,VALID,97.9085,VALID,-0.0169808,VALID,18.6498,VALID,205,VALID,0.119191,
2001-07-05, 03:11:00,VALID,916.067,VALID,0,VALID,98.0585,VALID,0,VALID,18.653,VALID,157,VALID,0.70918,
2001-07-05, 03:12:00,VALID,916.024,VALID,0,VALID,98.2353,VALID,-0.0509425,VALID,18.6853,VALID,140,VALID,0.311883,
2001-07-05, 03:13:00,VALID,916.007,VALID,0,VALID,98.2493,VALID,-0.0509425,VALID,18.6878,VALID,128,VALID,0.100391,
2001-07-05, 03:14:00,VALID,915.99,VALID,0,VALID,98.2327,VALID,-0.0509425,VALID,18.7082,VALID,128,VALID,0,
2001-07-05, 03:15:00,VALID,915.979,VALID,0,VALID,98.2098,VALID,-0.0339617,VALID,18.6982,VALID,128,VALID,0,
2001-07-05, 03:16:00,VALID,915.984,VALID,0,VALID,98.0967,VALID,-0.0509425,VALID,18.6719,VALID,130,VALID,0.292763,
2001-07-05, 03:17:00,VALID,915.974,VALID,0,VALID,98.1068,VALID,-0.0169808,VALID,18.6526,VALID,172,VALID,0.392578,
2001-07-05, 03:18:00,VALID,915.971,VALID,0,VALID,98.3917,VALID,0,VALID,18.6851,VALID,180,VALID,0,
2001-07-05, 03:19:00,VALID,915.946,VALID,0,VALID,98.3853,VALID,-0.0169808,VALID,18.7144,VALID,180,VALID,0.0683594,
2001-07-05, 03:20:00,VALID,915.925,VALID,0,VALID,98.337,VALID,0,VALID,18.7077,VALID,180,VALID,0.00740132,
2001-07-05, 03:21:00,VALID,915.903,VALID,0,VALID,98.384,VALID,-0.0509425,VALID,18.7086,VALID,180,VALID,0,
2001-07-05, 03:22:00,VALID,915.899,VALID,0,VALID,98.384,VALID,-0.0679233,VALID,18.7049,VALID,180,VALID,0,
2001-07-05, 03:23:00,VALID,915.888,VALID,0,VALID,98.3344,VALID,-0.0169808,VALID,18.6687,VALID,180,VALID,0,
2001-07-05, 03:24:00,VALID,915.894,VALID,0,VALID,98.3167,VALID,-0.0169808,VALID,18.6632,VALID,180,VALID,0,
2001-07-05, 03:25:00,VALID,915.892,VALID,0,VALID,98.3434,VALID,-0.0169808,VALID,18.6625,VALID,180,VALID,0,
2001-07-05, 03:26:00,VALID,915.905,VALID,0,VALID,98.2925,VALID,-0.0169808,VALID,18.6567,VALID,180,VALID,0,
2001-07-05, 03:27:00,VALID,915.904,VALID,0,VALID,97.9746,VALID,-0.0339617,VALID,18.5921,VALID,102,VALID,0,
2001-07-05, 03:28:00,VALID,915.901,VALID,0,VALID,97.5817,VALID,0.0509425,VALID,18.4452,VALID,17,VALID,0,
2001-07-05, 03:29:00,VALID,915.893,VALID,0,VALID,97.5804,VALID,0.0339617,VALID,18.3908,VALID,17,VALID,0,
2001-07-05, 03:30:00,VALID,915.87,VALID,0,VALID,97.8182,VALID,0.0679233,VALID,18.358,VALID,17,VALID,0,
2001-07-05, 03:31:00,VALID,915.882,VALID,0,VALID,98.2632,VALID,0,VALID,18.4134,VALID,17,VALID,0,
2001-07-05, 03:32:00,VALID,915.867,VALID,0,VALID,98.4476,VALID,0.0509425,VALID,18.481,VALID,17,VALID,0,
2001-07-05, 03:33:00,VALID,915.87,VALID,0,VALID,98.5366,VALID,0.0679233,VALID,18.5324,VALID,17,VALID,0,
2001-07-05, 03:34:00,VALID,915.866,VALID,0,VALID,98.3586,VALID,0.0679233,VALID,18.5162,VALID,17,VALID,0,
2001-07-05, 03:35:00,VALID,915.86,VALID,0,VALID,97.7292,VALID,0.0509425,VALID,18.3488,VALID,17,VALID,0,